sat.trackr.live / text

‹ back to catalog

STARLINK-5781

NORAD 56030 · 2023-042AW

PAYLOAD ACTIVE UNKNOWN

§ Identity

Operator
Country
US
Launch date
2023-03-24
Launch site
AFETR
Launch vehicle
Mass (kg)
RCS (m²)

Purposes: comms

External: N2YO · Heavens-Above · Gunter

§ Orbital elements

Epoch: 2026-05-24T17:15:11.363328Z

Period
94.27 min
Inclination
43.0057°
Eccentricity
0.0001891
Mean motion
15.27575720 rev/d
Perigee alt
481.8 km
Apogee alt
484.4 km
Semi-major
6,861.2 km
B*
1.0764e-6
RAAN
335.8054°
Arg perigee
270.7142°
Mean anomaly
89.3493°
Rev number
17,466

§ Raw data

STARLINK-57811 56030U 23042AW  26144.71888152 -.00000233  00000+0  10764-5 0  99932 56030  43.0057 335.8054 0001891 270.7142  89.3493 15.27575720174666

JSON: /api/v1/satellites/56030 · /tle

For live sub-satellite position, see the globe view (requires WebGL).

§ Visibility from observer

Set your observer location to see the next 7 days of passes ≥ 10°. The values pass through the URL so the page stays shareable.

No JS? Fill the form by hand. The geolocation button needs JavaScript.